GONETS M 22

导读 | 星芒AI

GONETS M 22 是一颗俄罗斯的低轨道通信卫星,属于 Gonets-M 系列,主要用于提供中低数据速率的卫星通信服务,支持包括短信、数据传输和物联网应用等功能。该卫星由俄罗斯航天局(Roscosmos)运营,设计寿命约为5年。Gonets-M 系列卫星组成一个星座,覆盖范围广泛,旨在为偏远地区提供通信支持。GONETS M 22 于2021年发射,是该系列的重要组成部分,增强了俄罗斯在卫星通信领域的自主能力。

基本信息
目录编号:
47229
目录名称:
GONETS M 22
国际标识:
2020-091C
轨道中心:
EARTH
卫星名称:
GONETS M 22
卫星全名:
--
卫星状态:
在轨 (已飞行1793 天)
发射日期:
2020-12-03 UTC
国别 :
俄罗斯(独联体) (CIS)
星等 :
--
轨道信息
数据来源 国际轨道数据 AOE轨道数据
星历时间 2025-10-31T16:10:21+0800
5小时前
查看轨道信息
2025-10-30T15:00:00+0800
1天前
查看轨道信息
半长轴 7872.627km 7872.629km
偏心率 0.0020817 0.0020929
轨道倾角 82.500° 82.499°
近地点辐角 315.748° 317.908°
升交点赤经 84.328° 84.980°
平近点角 44.193° 31.405°
近地点 1478.103km 1478.017km
远地点 1510.881km 1510.971km
周期 115.862分钟 115.862分钟
每日圈数 12.428632 12.428627
详细信息
使用方式:
暂无
2D轨道图
3D轨道图
轨道高度分析图
轨道倾角分析图
轨道综合分析图
查看轨道综合分析图